Regional Weather Roundup
Issued by NWS

Home | Current Version | Previous Version | Graphics & Text | Print | Product List | Glossary On
Versions: 1 2 3 4 5 6 7 8 9 10 11 12 13 14 15 16 17 18 19 20 21 22 23 24 25 26 27
000
ASUS45 KCYS 261710
RWRWY

WYOMING REGIONAL WEATHER ROUNDUP
NATIONAL WEATHER SERVICE CHEYENNE WY
1100 AM MDT FRI AUG 26 2016

NOTE:  "FAIR" INDICATES FEW OR NO CLOUDS BELOW 12,000 FEET
WITH NO SIGNIFICANT WEATHER AND/OR OBSTRUCTIONS TO VISIBILITY.

WYZ001-261800-
YELLOWSTONE NATIONAL PARK

CITY           SKY/WX    TMP DP  RH WIND       PRES   REMARKS
LK YELLOWSTONE   N/A     53  37  54 VRB5      30.25F
W YELLOWSTONE  NOT AVBL

$$
WYZ002>013-054>058-071-098>099-261800-
NORTHERN WYOMING

CITY           SKY/WX    TMP DP  RH WIND       PRES   REMARKS
JACKSON        NOT AVBL
CODY           PTSUNNY   55  45  67 N10       30.15S
GREYBULL       FAIR      63  47  55 VRB5      30.11F
WORLAND        FAIR      61  46  57 S5        30.11F
SHERIDAN       FAIR      65  43  44 CALM      30.11S
BUFFALO        FAIR      67  38  34 NW12      30.14F
GILLETTE       FAIR      64  48  56 VRB7      30.11F
HULETT         FAIR      64  46  52 SW9       30.12F
NEWCASTLE      PTSUNNY   59  46  63 S7        30.15S

$$
WYZ014>020-022>026-101>103-261800-
CENTRAL WYOMING

CITY           SKY/WX    TMP DP  RH WIND       PRES   REMARKS
BIG PINEY      PTSUNNY   54  37  52 VRB3      30.22F
PINEDALE       FAIR      59  32  36 E5        30.23F
DUBOIS         PTSUNNY   57  30  35 E6        30.19F
LANDER         FAIR      63  42  46 VRB3      30.15F
RIVERTON       FAIR      59  48  67 CALM      30.16F
CASPER         FAIR      61  46  57 SE3       30.15F
DOUGLAS        FAIR      60  49  66 VRB3      30.15F

$$
WYZ021-027>030-104>119-261800-
SOUTHERN WYOMING

CITY           SKY/WX    TMP DP  RH WIND       PRES   REMARKS
EVANSTON       FAIR      65  32  29 SW13      30.19F
FORT BRIDGER   FAIR      60  35  39 N3        30.23F
ROCK SPRINGS   FAIR      62  35  36 VRB3      30.20F
DIXON          FAIR      66  38  35 SW15      30.25F
RAWLINS        FAIR      65  35  33 W9        30.21F
SARATOGA       FAIR      64  36  34 N7        30.23S
LARAMIE        FAIR      63  37  38 S9G16     30.21F
CHEYENNE       FAIR      66  44  45 VRB5      30.18F
TORRINGTON     FAIR      64  50  60 W3        30.11S
PINE BLUFFS    FAIR      63  54  72 S9G20     30.16S

$$




USA.gov is the U.S. government's official web portal to all federal, state and local government web resources and services.